STARLINK-37083

Last updated on Sun Apr 12 2026 00:02:07 GMT+0000 (Coordinated Universal Time)

1 68227U 26053W 26101.50002315 -.01849344 00000+0 -21730-1 0 9995 2 68227 97.2851 337.4652 0002031 80.3311 112.7144 15.64417248 5299

Satellite not in orbit

STARLINK-37083